Walla Walla, WA
on Wednesday, February 27, 2013

Wednesday
Previous Day Next Day
Daily Summary
 ActualAverage (KPDT)Record (KPDT)
Temperature
Mean Temperature °F 41°F  
Max Temperature 55°F 50°F 69°F (1926)
Min Temperature 36°F 32°F 0°F (1993)
Degree Days
Heating Degree Days 20 24  
Month to date heating degree days 718  
Since 1 July heating degree days 3876  
Cooling Degree Days 0 0  
Month to date cooling degree days 0  
Year to date cooling degree days 0  
Moisture
Dew Point 28°F   
Average Humidity 51    
Maximum Humidity 71    
Minimum Humidity 31    
Precipitation
Precipitation 0.00 in 0.04 in 0.31 in (1999)
Month to date precipitation 1.07  
Year to date precipitation 2.50  
Snow
Snow 0.00 in 0.00 in 1.00 in (1930)
Month to date snowfall 3.2  
Year to date snowfall 6.9  
Since 1 July snowfall 14.4  
Snow Depth in   
Wind
Wind Speed 4 mph   
Max Wind Speed 14 mph   
Max Gust Speed 18 mph   
Visibility 10 miles   
Events Rain   

Key: T is trace of precipitation, MM is missing value
Source: NWS Daily Summary
Time(PST)TemperatureDew PointHumidity Pressure Visibility Wind DirectionWind SpeedGust SpeedPrecipitationEvents Conditions
12:53 AM 37.9°F 25.0°F 60% 30.23 in 10.0 miles Calm Calm - N/A   Overcast
1:53 AM 39.0°F 27.0°F 62% 30.23 in 10.0 miles North 3.5 mph - N/A   Overcast
2:53 AM 42.1°F 25.0°F 51% 30.24 in 10.0 miles West 4.6 mph - N/A   Overcast
3:53 AM 37.9°F 24.1°F 57% 30.25 in 10.0 miles SSE 6.9 mph - N/A   Partly Cloudy
4:53 AM 42.1°F 24.1°F 49% 30.25 in 10.0 miles South 10.4 mph - N/A   Scattered Clouds
5:53 AM 36.0°F 27.0°F 70% 30.27 in 10.0 miles Calm Calm - N/A   Overcast
7:53 AM 43.0°F 27.0°F 53% 30.30 in 10.0 miles SSW 5.8 mph - N/A   Scattered Clouds
8:53 AM 43.0°F 28.9°F 58% 30.32 in 10.0 miles WSW 4.6 mph - N/A   Partly Cloudy
9:53 AM 46.9°F 28.9°F 50% 30.32 in 10.0 miles SW 8.1 mph - N/A   Clear
10:53 AM 50.0°F 25.0°F 38% 30.32 in 10.0 miles SW 13.8 mph - N/A   Clear
11:53 AM 52.0°F 25.0°F 35% 30.31 in 10.0 miles SW 11.5 mph - N/A   Partly Cloudy
12:53 PM 54.0°F 27.0°F 35% 30.28 in 10.0 miles SW 11.5 mph 18.4 mph N/A   Partly Cloudy
1:53 PM 55.0°F 25.0°F 31% 30.28 in 10.0 miles West 6.9 mph 16.1 mph N/A   Clear
2:53 PM 55.0°F 26.1°F 33% 30.27 in 10.0 miles West 8.1 mph - N/A   Clear
3:53 PM 55.0°F 27.0°F 34% 30.27 in 10.0 miles West 3.5 mph - N/A   Clear
4:53 PM 53.1°F 28.9°F 40% 30.25 in 10.0 miles Calm Calm - N/A   Partly Cloudy
5:53 PM 50.0°F 30.0°F 46% 30.27 in 10.0 miles Calm Calm - N/A   Overcast
6:53 PM 48.9°F 30.9°F 50% 30.27 in 10.0 miles Calm Calm - N/A   Overcast
7:53 PM 46.0°F 33.1°F 61% 30.27 in 10.0 miles Calm Calm - N/A   Overcast
8:53 PM 46.9°F 32.0°F 56% 30.26 in 10.0 miles SSE 3.5 mph - N/A   Overcast
9:53 PM 44.1°F 35.1°F 71% 30.26 in 10.0 miles Calm Calm - N/A   Overcast
10:53 PM 50.0°F 34.0°F 54% 30.28 in 10.0 miles SW 10.4 mph - 0.00 in Rain Light Rain
11:53 PM 46.9°F 37.0°F 68% 30.29 in 10.0 miles West 5.8 mph - 0.00 in Rain Light Rain
Moon Phase
Feb. 27 Mar. 04 Mar. 11 Mar. 19 Mar. 27
Sunrise:06:35 AM (PST) Moon Rise:08:15 PM (PST)2/27
Sunset:05:37 PM (PST) Moon Set:07:03 AM (PST)2/27

Copyright © 2014 The Weather Underground, Inc.